Regional Weather Roundup
Issued by NWS

Home | Current Version | Previous Version | Text Only | Print | Product List | Glossary Off
Versions: 1 2 3 4 5 6 7 8 9 10 11 12 13 14 15 16 17 18 19 20 21 22 23 24 25 26 27 28 29 30 31 32 33 34 35 36 37 38 39 40 41 42 43 44 45 46 47 48 49 50

000
ASUS43 KOAX 291702
RWRNE

WEATHER ROUNDUP FOR NEBRASKA
NATIONAL WEATHER SERVICE OMAHA NE
1200 PM CDT MON AUG 29 2016

NOTES: SATELLITE DATA IS BEING USED TO AUGMENT CLOUD COVER ABOVE
       12000 FEET.
       "FAIR" INDICATES FEW OR NO CLOUDS BELOW 12,000 FEET WITH NO
       SIGNIFICANT WEATHER AND/OR OBSTRUCTIONS TO VISIBILITY.

  * THESE STATIONS DO NOT REPORT WEATHER SUCH AS RAIN...SNOW OR FOG.

NEZ001>004-019>022-054>056-291800-
NEBRASKA PANHANDLE

CITY           SKY/WX    TMP DP  RH WIND       PRES   REMARKS
SCOTTSBLUFF    SUNNY     78  53  41 NW9       30.27R
ALLIANCE       MOSUNNY   76  58  53 CALM      30.26R
CHADRON        SUNNY     76  51  41 NE10      30.26R
KIMBALL        CLOUDY    79  49  34 E7        30.30S
SIDNEY         SUNNY     80  51  36 E8        30.28S
$$

NEZ057>060-069>072-079>082-291800-
SOUTHWEST NEBRASKA

CITY           SKY/WX    TMP DP  RH WIND       PRES   REMARKS
NORTH PLATTE   CLOUDY    74  63  68 CALM      30.23R
IMPERIAL       CLOUDY    74  64  71 SW7       30.23R
LEXINGTON      CLOUDY    76  65  68 S12       30.22R
MCCOOK         CLOUDY    74  66  76 SW8       30.22R
OGALLALA       SUNNY     81  59  47 S5        30.22R
$$

NEZ005>010-023>029-035>040-094-291800-
NORTH CENTRAL NEBRASKA

CITY           SKY/WX    TMP DP  RH WIND       PRES   REMARKS
VALENTINE      SUNNY     86  61  42 VRB3      30.19R
AINSWORTH      MOSUNNY   83  66  57 SW5       30.21R
BROKEN BOW     CLOUDY    74  65  73 SE7       30.23R
O`NEILL        CLOUDY    81  65  57 S8        30.21R
ORD            CLOUDY    74  64  71 S6        30.21R
THEDFORD       CLOUDY    83  60  45 SW3       30.22S
$$

NEZ041-046>049-061>064-073>077-083>087-291800-
SOUTH CENTRAL NEBRASKA

CITY           SKY/WX    TMP DP  RH WIND       PRES   REMARKS
GRAND ISLAND   CLOUDY    77  65  66 SE8       30.22S
AURORA         MOSUNNY   76  69  77 SE6       30.22S
HASTINGS       CLOUDY    74  68  81 S6        30.23S
HEBRON         PTSUNNY   81  71  71 SE3       30.20F
HOLDREGE       CLOUDY    73  64  73 SE9       30.23S
KEARNEY *      CLOUDY    75  64  69 S8        30.22R
YORK           CLOUDY    81  70  69 S7        30.22R
$$

NEZ011>018-030>034-042>045-291800-
NORTHEAST NEBRASKA

CITY           SKY/WX    TMP DP  RH WIND       PRES   REMARKS
NORFOLK        CLOUDY    76  65  68 S9        30.22R
ALBION         PTSUNNY   75  65  70 SE5       30.23R
BLAIR          CLOUDY    78  71  78 SE5       30.21F
FREMONT        PTSUNNY   78  71  78 SE5       30.21S
TEKAMAH        CLOUDY    78  71  79 S6        30.20S
WAYNE          LGT RAIN  75  71  86 S5        30.23R
$$

NEZ050>053-065>068-078-088>093-291800-
SOUTHEAST NEBRASKA

CITY           SKY/WX    TMP DP  RH WIND       PRES   REMARKS
LINCOLN        PTSUNNY   81  71  71 S7        30.21S
OMAHA EPPLEY   CLOUDY    79  69  71 SE3       30.20S
BEATRICE       CLOUDY    81  72  74 SE3       30.21R
FALLS CITY     MOSUNNY   84  75  74 E5        30.20S HX  92
NEBRASKA CITY  LGT RAIN  77  76  97 CALM      30.21S
PLATTSMOUTH    CLOUDY    81  72  74 SE5       30.21S
$$

NEZ044-045-051>053-067-291800-
OMAHA AREA

CITY           SKY/WX    TMP DP  RH WIND       PRES   REMARKS
OMAHA EPPLEY   CLOUDY    79  69  71 SE3       30.20S
BLAIR          CLOUDY    78  71  78 SE5       30.21F
FREMONT        PTSUNNY   78  71  78 SE5       30.21S
MILLARD        CLOUDY    80  72  75 SE5       30.21S
OFFUTT AFB     CLOUDY    79  71  77 VRB1      30.20R
PLATTSMOUTH    CLOUDY    81  72  74 SE5       30.21S
WAHOO          FAIR      78  72  80 CALM      30.21R
$$



USA.gov is the U.S. government's official web portal to all federal, state and local government web resources and services.